Date,TemperatureHighF,TemperatureAvgF,TemperatureLowF,DewpointHighF,DewpointAvgF,DewpointLowF,HumidityHigh,HumidityAvg,HumidityLow,PressureMaxIn,PressureMinIn,WindSpeedMaxMPH,WindSpeedAvgMPH,GustSpeedMaxMPH,PrecipitationSumIn
2013-1-1,26.0,24.8,19.0,26.0,24.7,18.0,100,99,97,29.94,29.83,18,6,22,0.00
2013-1-2,19.0,16.1,14.0,18.0,15.1,13.0,97,95,94,30.09,29.90,10,3,17,0.00
2013-1-3,25.0,19.9,15.0,24.0,18.6,14.0,95,94,92,30.09,30.00,20,4,26,0.00
2013-1-4,24.0,21.8,20.0,22.0,20.4,19.0,96,94,90,30.11,30.02,21,10,30,0.00
2013-1-5,31.0,24.8,20.0,25.0,21.7,18.0,95,88,74,30.28,30.08,31,5,32,0.01
2013-1-6,33.0,30.1,28.0,29.0,26.6,23.0,97,87,79,30.10,29.93,17,4,27,0.01
2013-1-7,29.0,25.3,20.0,28.0,23.4,18.0,98,93,83,30.35,30.09,17,3,22,0.00
2013-1-8,40.0,34.3,23.0,31.0,26.7,21.0,92,74,62,30.30,30.19,14,3,18,0.09
2013-1-9,44.0,37.3,31.0,41.0,33.9,25.0,100,88,75,30.37,30.18,18,5,30,0.14
2013-1-10,41.0,35.6,29.0,31.0,28.5,25.0,92,76,55,30.52,30.31,19,4,27,0.01
2013-1-11,50.0,39.3,33.0,50.0,36.3,28.0,100,89,71,30.32,30.00,10,3,20,0.20
2013-1-12,59.0,52.5,49.0,54.0,51.2,48.0,100,96,83,30.10,30.01,14,2,18,0.04
2013-1-13,63.0,55.5,48.0,56.0,51.6,47.0,99,88,74,30.03,29.91,15,2,29,0.29
2013-1-14,54.0,36.3,28.0,54.0,34.5,25.0,100,93,83,30.26,29.93,18,4,29,0.57
2013-1-15,31.0,28.2,26.0,29.0,25.8,24.0,98,91,84,30.25,30.01,10,2,14,0.01
2013-1-16,34.0,30.1,29.0,34.0,30.1,29.0,100,100,98,30.01,29.80,12,4,20,0.01
2013-1-17,28.0,26.6,25.0,27.0,25.5,24.0,97,96,93,30.07,29.98,7,2,16,0.00
2013-1-18,30.0,21.1,12.0,24.0,15.1,8.0,97,79,50,30.34,30.02,23,5,31,0.00
2013-1-19,47.0,39.2,30.0,25.0,19.9,12.0,51,45,39,30.20,29.83,21,6,32,0.25
2013-1-20,42.0,31.3,18.0,30.0,21.4,13.0,83,67,49,29.99,29.76,26,11,33,0.08
2013-1-21,23.0,16.6,7.0,18.0,13.5,4.0,93,87,74,29.97,29.75,14,4,22,0.01
2013-1-22,7.0,2.5,0.0,4.0,-0.4,-3.0,90,87,84,30.06,29.85,20,8,27,0.00
2013-1-23,9.0,4.3,-1.0,5.0,0.4,-4.0,89,84,73,30.10,29.91,16,5,23,0.00
2013-1-24,12.0,8.7,5.0,8.0,4.5,-2.0,92,83,65,30.35,29.88,17,3,21,0.00
2013-1-25,16.0,9.2,3.0,15.0,6.2,-1.0,95,87,78,30.34,29.87,12,3,21,0.00
2013-1-26,20.0,16.5,14.0,19.0,15.5,13.0,96,95,94,30.29,29.92,20,7,26,0.00
2013-1-27,27.0,19.5,12.0,22.0,16.7,11.0,94,88,78,30.40,30.27,5,1,14,0.09
2013-1-28,46.0,37.6,24.0,46.0,36.6,20.0,100,96,81,30.27,29.99,18,5,26,0.55
2013-1-29,60.0,51.5,46.0,56.0,49.9,46.0,100,95,80,30.06,29.89,15,3,21,0.17
2013-1-30,64.0,52.7,46.0,56.0,50.2,44.0,100,91,75,29.89,29.25,14,4,33,1.27
2013-1-31,45.0,20.1,16.0,44.0,17.5,11.0,98,89,80,29.73,29.26,30,9,36,0.92